Location: Clinton NY
(43.0598°N, 75.3602°W)
Time: 18:05:32
(UTC-04:00)

ISS - All Passes

Search period start: 27 June 2016 00:00
Search period end: 07 July 2016 00:00
Orbit: 402 x 403 km, 51.6° (Epoch: 27 June)

Date Brightness Start Highest point End Pass type
(mag) Time Alt. Az. Time Alt. Az. Time Alt. Az.
27 Jun - 09:28:01 10° SSW 09:31:04 37° SE 09:34:08 10° ENE daylight
27 Jun - 11:04:31 10° W 11:07:32 34° NNW 11:10:35 10° NE daylight
27 Jun - 12:42:19 10° NW 12:44:40 18° N 12:47:01 10° NE daylight
27 Jun - 14:19:05 10° NW 14:21:54 25° NNE 14:24:42 10° ENE daylight
27 Jun - 15:55:20 10° WNW 15:58:35 70° SW 16:01:50 10° SE daylight
28 Jun - 08:35:59 10° S 08:38:29 20° SE 08:40:59 10° E daylight
28 Jun - 10:11:29 10° WSW 10:14:41 53° NNW 10:17:54 10° NE daylight
28 Jun - 11:49:10 10° WNW 11:51:40 20° N 11:54:09 10° NE daylight
28 Jun - 13:26:22 10° NW 13:28:55 21° N 13:31:29 10° ENE daylight
28 Jun - 15:02:35 10° NW 15:05:50 64° NNE 15:09:04 10° ESE daylight
28 Jun - 16:39:48 10° W 16:41:58 16° SW 16:44:07 10° S daylight
29 Jun - 07:45:03 10° SE 07:45:57 11° SE 07:46:51 10° ESE daylight
29 Jun - 09:18:38 10° SW 09:21:55 87° SE 09:25:11 10° ENE daylight
29 Jun - 10:55:58 10° WNW 10:58:40 23° NNW 11:01:24 10° NE daylight
29 Jun - 12:33:33 10° NW 12:35:56 18° N 12:38:18 10° NE daylight
29 Jun - 14:09:54 10° NW 14:13:00 39° NNE 14:16:07 10° E daylight
29 Jun - 15:46:28 10° WNW 15:49:23 30° SW 15:52:18 10° SSE daylight
30 Jun - 08:26:04 10° SW 08:29:12 45° SE 08:32:21 10° ENE daylight
30 Jun - 10:02:46 10° W 10:05:44 31° NNW 10:08:42 10° NE daylight
30 Jun - 11:40:34 10° NW 11:42:54 18° N 11:45:14 10° NE daylight
30 Jun - 13:17:13 10° NW 13:20:06 28° NNE 13:22:58 10° E daylight
30 Jun - 14:53:30 10° WNW 14:56:43 58° SW 14:59:56 10° SE daylight
01 Jul - 07:33:51 10° SSW 07:36:34 24° SE 07:39:17 10° E daylight
01 Jul - 09:09:41 10° WSW 09:12:51 46° NNW 09:16:02 10° NE daylight
01 Jul - 10:47:26 10° NW 10:49:52 19° N 10:52:18 10° NE daylight
01 Jul - 12:24:30 10° NW 12:27:08 22° NNE 12:29:45 10° ENE daylight
01 Jul - 14:00:42 10° NW 14:03:59 76° NNE 14:07:14 10° ESE daylight
01 Jul - 15:38:17 10° W 15:40:02 14° SW 15:41:46 10° SSW daylight
02 Jul - 06:42:22 10° SSE 06:44:00 13° SE 06:45:38 10° E daylight
02 Jul - 08:16:46 10° WSW 08:20:01 79° NW 08:23:18 10° NE daylight
02 Jul - 09:54:13 10° WNW 09:56:51 22° NNW 09:59:31 10° NE daylight
02 Jul - 11:31:42 10° NW 11:34:08 19° N 11:36:33 10° NE daylight
02 Jul - 13:07:59 10° NW 13:11:09 45° NNE 13:14:18 10° ESE daylight
02 Jul - 14:44:42 10° WNW 14:47:27 25° SW 14:50:12 10° SSE daylight
03 Jul - 07:24:05 10° SW 07:27:17 55° SE 07:30:29 10° ENE daylight
03 Jul - 09:00:59 10° W 09:03:53 28° NNW 09:06:47 10° NE daylight
03 Jul - 10:38:45 10° NW 10:41:05 18° N 10:43:24 10° NE daylight
03 Jul - 12:15:18 10° NW 12:18:15 30° NNE 12:21:12 10° E daylight
03 Jul - 13:51:38 10° WNW 13:54:48 47° SW 13:57:57 10° SE daylight
04 Jul - 06:31:44 10° SSW 06:34:36 29° SE 06:37:29 10° ENE daylight
04 Jul - 08:07:51 10° W 08:10:58 40° NNW 08:14:05 10° NE daylight
04 Jul - 09:45:38 10° NW 09:48:02 18° N 09:50:25 10° NE daylight
04 Jul - 11:22:35 10° NW 11:25:17 23° NNE 11:27:59 10° ENE daylight
04 Jul - 12:58:47 10° WNW 13:02:04 90° WSW 13:05:19 10° SE daylight
04 Jul - 14:36:55 10° WSW 14:38:02 11° SW 14:39:08 10° SSW daylight
05 Jul - 05:39:55 10° S 05:42:00 16° SE 05:44:04 10° E daylight
05 Jul - 07:14:51 10° WSW 07:18:06 67° NNW 07:21:21 10° NE daylight
05 Jul - 08:52:26 10° WNW 08:55:00 21° NNW 08:57:34 10° NE daylight
05 Jul - 10:29:47 10° NW 10:32:15 19° N 10:34:44 10° ENE daylight
05 Jul - 12:06:02 10° NW 12:09:15 52° NNE 12:12:27 10° ESE daylight
05 Jul - 13:42:55 10° W 13:45:28 21° SW 13:48:00 10° S daylight
06 Jul - 06:22:04 10° SW 06:25:19 67° SE 06:28:33 10° ENE daylight
06 Jul - 07:59:10 10° WNW 08:01:59 26° NNW 08:04:48 10° NE daylight
06 Jul - 09:36:52 10° NW 09:39:13 18° N 09:41:33 10° NE daylight
06 Jul - 11:13:19 10° NW 11:16:20 33° NNE 11:19:21 10° E daylight
06 Jul - 12:49:44 10° WNW 12:52:49 39° SW 12:55:53 10° SSE daylight
